Other Public Products
Issued by NWS Grand Forks, ND

Home | Current Version | Previous Version | Text Only | Print | Product List | Glossary Off
Versions: 1 2 3 4 5 6 7 8 9 10 11 12 13 14 15 16 17 18 19 20 21 22 23 24 25 26 27 28 29 30 31 32 33 34 35 36 37 38 39 40 41 42 43 44 45 46 47 48 49 50

000
FPUS83 KFGF 310910
OPUFGF
PRAIRIE TO PINES WEATHER ROUNDUP
NATIONAL WEATHER SERVICE EASTERN NORTH DAKOTA/GRAND FORKS ND
400 AM CDT FRI OCT 31 2014

 **SATELLITE DATA USED TO AUGMENT SKY COVER AT AUTOMATED STATIONS**
 *****  WEATHER ACROSS EASTERN NORTH DAKOTA  *****

CITY           SKY/WX    TMP DP  RH WIND       PRES   REMARKS
GRAND FORKS    CLEAR     15  11  83 N5        30.60F WCI   8
GRAND FORKS AF CLEAR     15  13  92 NW5       30.60F WCI   7
GRAND CITY NWS   N/A     18 N/A N/A N3          N/A
BUXTON         NOT AVBL
DEVILS LAKE    PTCLDY    19  10  68 CALM      30.56S
FARGO          CLEAR     17  13  84 N8        30.59F WCI   7
WAHPETON ARPT  SUNNY     19  16  86 N6        30.59S WCI  11
$$

 *****  WEATHER ACROSS CENTRAL AND WESTERN NORTH DAKOTA  *****

CITY           SKY/WX    TMP DP  RH WIND       PRES   REMARKS
JAMESTOWN      PTCLDY    19  15  84 W3        30.59R
BISMARCK       PTCLDY    16  14  92 E7        30.58F WCI   6
MINOT          PTCLDY    15  11  83 SE7       30.52F WCI   5
MINOT AFB      PTCLDY    17  16  95 SE8       30.52F WCI   6
GARRISON         N/A     24  21  88 SE7       30.52F WCI  16
WILLISTON      CLOUDY    29  23  78 S15G23    30.42F WCI  18
DICKINSON      CLOUDY    29  24  82 SE22G29   30.42F WCI  15
HETTINGER      CLOUDY    28  24  85 SE18G24   30.47F WCI  15
$$

 *****  OTHER OBSERVATIONS NORTHEAST NORTH DAKOTA  *****

CITY           SKY/WX    TMP DP  RH WIND       PRES   REMARKS
WALHALLA       FAIR      12  12 100 CALM      30.61S
LANGDON        FAIR       5   1  85 CALM      30.56S
CAVALIER       FAIR      16  14  93 W3        30.61F
GRAFTON        FAIR      18  16  93 NW6       30.61F WCI   9
CANDO          FAIR      10  10 100 W3        30.59S
FORT TOTTEN    NOT AVBL
ROLLA          FAIR      10  10 100 SW7       30.57S WCI   0
RUGBY          FAIR      18  16  93 SE5       30.57F WCI  11
 ***** THE ABOVE OBSERVATIONS ARE NON NWS ARE NOT QUALITY
        CONTROLLED AND MAY MIS-REPORT RAIN FOR SNOW...
$$

 *****  OTHER OBSERVATIONS SOUTHEAST NORTH DAKOTA *****

CITY           SKY/WX    TMP DP  RH WIND       PRES   REMARKS
COOPERSTOWN    NOT AVBL
VALLEY CITY    FAIR      16  16 100 NW6       30.58S WCI   7
OAKES            N/A     18  16  93 NW5       30.59R WCI  11
GWINNER        SUNNY     21  18  86 N7        30.59S WCI  13
BUFFALO        NOT AVBL
WYNDMERE         N/A     18  16  93 NW3         N/A
 ***** THE ABOVE OBSERVATIONS ARE NON NWS ARE NOT QUALITY
       CONTROLLED AND MAY MIS-REPORT RAIN FOR SNOW...
$$

  *****  WEATHER ACROSS NORTHERN MINNESOTA  *****

CITY           SKY/WX    TMP DP  RH WIND       PRES   REMARKS
FLAG ISLAND    MOCLDY    28  21  74 N9        30.56F WCI  20
WARROAD        MOCLDY    21  18  86 NW7       30.58S WCI  13
ROSEAU         CLEAR     19  16  86 NW3       30.59S
HALLOCK        CLEAR     18  14  86 NE3       30.60F
THF RVR FALLS  CLEAR     21  18  86 N8        30.58S WCI  12
HALSTAD          N/A     16  12  84 N8          N/A  WCI   5
FOSSTON        CLEAR     16  14  93 CALM      30.57S
BAUDETTE       CLEAR     24  17  74 N5        30.56R WCI  18
WASKISH        PTCLDY    25  18  74 CALM      30.55S
CROOKSTON      CLEAR     18  16  93 N3        30.60F
$$
  *****  WEATHER ACROSS CENTRAL AND WEST MINNESOTA  *****

CITY           SKY/WX    TMP DP  RH WIND       PRES   REMARKS
BEMIDJI        CLEAR     25  16  69 N5        30.53R WCI  19
PARK RAPIDS    CLEAR     25  15  66 N8        30.52R WCI  16
WADENA         CLEAR     19  16  86 NW6       30.52R WCI  11
DETROIT LAKES  CLEAR     23  19  86 CALM      30.55S
MOORHEAD       CLEAR     18  18 100 N7        30.60S WCI   8
FERGUS FALLS   CLEAR     19  16  86 NW8       30.58S WCI   9
ELBOW LAKE     FAIR      23  20  90 N7        30.55R WCI  15
MORRIS MN      NOT AVBL
STAPLES        CLEAR     21  16  79 NW7       30.51R WCI  13
WHEATON        CLEAR     19  18  93 N8        30.59S WCI   9
$$
  *****  WEATHER ELSEWHERE ACROSS MINNESOTA  *****

CITY           SKY/WX    TMP DP  RH WIND       PRES   REMARKS
DULUTH         CLOUDY    28  16  60 N15G26    30.43R WCI  16
INTRNTL FALLS  MOCLDY    27  17  66 N13       30.53R WCI  16
ELY            CLOUDY    25  18  74 N7        30.45R WCI  17
CLOQUET        CLOUDY    28  16  59 N14       30.45R WCI  17
BRAINERD       CLEAR     26  16  65 N12       30.50R WCI  16
HIBBING        CLOUDY    27  16  63 N14G21    30.47R WCI  16
ALEXANDRIA     CLEAR     27  19  72 N10       30.52R WCI  17
SAINT CLOUD    CLEAR     27  17  66 N9        30.48S WCI  18
MINNEAPOLIS    PTCLDY    29  16  58 N15G22    30.45R WCI  18
$$

  *****  WEATHER ACROSS SOUTH DAKOTA  *****

CITY           SKY/WX    TMP DP  RH WIND       PRES   REMARKS
SIOUX FALLS    CLEAR     23  18  81 N7        30.52R WCI  15
BROOKINGS      NOT AVBL
WATERTOWN      CLEAR     18  15  88 N7        30.52R WCI   9
HURON          CLEAR     14  11  87 N6        30.58S WCI   5
SISSETON         N/A     19  17  92 N7        30.57S WCI  10
ABERDEEN       PTCLDY    17  13  84 N6        30.60S WCI   9
MITCHELL       CLEAR     22  19  89 N8        30.58R WCI  12
PIERRE         PTCLDY    19  15  84 CALM      30.57S
MOBRIDGE       PTCLDY    20  16  84 S3        30.56R
RAPID CITY     FOG       30  29  96 SE12      30.46F VSB 1   WCI  20
$$

  *****  SOME WEATHER IN NEARBY STATES *****

CITY           SKY/WX    TMP DP  RH WIND       PRES   REMARKS
GLASGOW MT     PTCLDY    33  28  81 SE20      30.23F WCI  21
GREAT FALLS MT MOCLDY    52  31  44 S15G21    29.94F
CHEYENNE WY    PTCLDY    35  28  75 S13       30.38F
SCOTTSBLUFF NE CLEAR     32  30  92 E9        30.43S WCI  24
OMAHA NE       PTCLDY    33  22  63 N14       30.48R WCI  23
DES MOINES IA  PTCLDY    37  20  50 N22G33    30.37R
DAVENPORT IA   CLEAR     39  21  48 NW23G29   30.17R
CHICAGO IL     LGT RAIN  43  36  76 NW17      30.03S
EAU CLAIRE WI  PTCLDY    32  18  56 N15G22    30.34R WCI  22
LA CROSSE WI   CLOUDY    34  21  59 N21       30.30R WCI  22
$$

  *****  SOME NATIONAL WEATHER *****

CITY           SKY/WX    TMP DP  RH WIND       PRES   REMARKS
LA GUARDIA NY  PTCLDY    45  34  65 N7        30.00F
RALEIGH NC     PTCLDY    45  39  79 NE7       29.97F
ATLANTA GA     PTCLDY    44  39  82 NW3       29.93F
NEW ORLEANS LA PTCLDY    56  48  74 NW3       30.04S
OKLAHOMA CITY  CLEAR     54  36  50 N13G22    30.28R
ALBUQUERQUE NM PTCLDY    55  24  30 E14       30.34R
SALT LAKE CITY MOCLDY    56  26  31 SE9       30.05F
LOS ANGELES CA PTCLDY    65  61  88 CALM      29.97R
BOISE ID       MOCLDY    48  39  71 W3        29.81F
SEATTLE WA     RAIN      51  50  96 CALM      29.77F
$$

*** WEATHER ACROSS MANITOBA...SASKATCHEWAN AND ONTARIO ***
                ***ONTARIO***

CITY           SKY/WX    TMP DP  RH WIND       PRES   REMARKS
GERALDTON      LGT SNOW  25  23  93 N14       30.34R WCI  13
THUNDER BAY    MOCLDY    28  21  74 N10G20    30.41R WCI  19
SIOUX LOOKOUT  FLURRIES  23  19  86 N6        30.51S WCI  16
TORONTO        LGT RAIN  43  37  81 E3        29.96F
BIG TROUT LK   CLOUDY    19  16  86 NW8       30.45S WCI   9
PICKLE LAKE    NOT AVBL
DRYDEN         CLOUDY    25  19  80 NE6       30.52S WCI  18
KENORA         FLURRIES  23  18  80 N6        30.55S WCI  16
$$
                *** MANITOBA***

CITY           SKY/WX    TMP DP  RH WIND       PRES   REMARKS
BRANDON        CLEAR     10   9  92 CALM      30.59R
DAUPHIN        CLEAR     18  14  86 W7        30.56S WCI   8
ISLAND LAKE    CLEAR     25  19  80 W8        30.52S WCI  16
PILOT MOUND      N/A      9   5  85 S5          N/A  WCI   0
THE PAS        CLEAR     19  18  93 S9        30.44F WCI   9
THOMPSON       CLEAR     12  12 100 S2        30.43F
WINNIPEG       CLEAR     16  12  86 CALM      30.61F
LYNN LAKE      CLEAR     21  19  93 S9        30.29F WCI  11
CHURCHILL      MOCLDY    10   9  92 SW8       30.34F WCI  -1
GILLAM         CLEAR     12   9  85 SW10      30.43F WCI  -1
$$
                ***SASKATCHEWAN***

CITY           SKY/WX    TMP DP  RH WIND       PRES   REMARKS
ESTEVAN        PTCLDY    21  19  93 SE10      30.44F WCI  10
KINDERSLEY     CLOUDY    34  30  86 SE23G29   30.00F WCI  22
LLOYDMINSTER   CLOUDY    34  28  80 SE23G29   29.94F WCI  22
PRINCE ALBERT  PTCLDY    25  23  93 S8        30.25F WCI  16
REGINA         MOCLDY    25  21  86 SE18G29   30.35F WCI  11
YORKTON        CLEAR     23  19  86 S13       30.44F WCI  11



USA.gov is the U.S. government's official web portal to all federal, state and local government web resources and services.